Regional Weather Roundup
Issued by NWS

Home | Current Version | Previous Version | Graphics & Text | Print | Product List | Glossary On
Versions: 1 2 3 4 5 6 7 8 9 10 11 12 13 14 15 16 17 18 19 20 21 22 23 24 25 26 27 28 29 30 31 32 33 34 35 36 37 38 39 40 41 42 43 44 45 46 47 48 49 50
000
ASUS43 KTOP 261559
RWRKS

WEATHER ROUNDUP FOR KANSAS
NATIONAL WEATHER SERVICE GOODLAND KS
1100 AM CDT TUE SEP 26 2017

NOTE:  "FAIR" INDICATES FEW OR NO CLOUDS BELOW 12,000 FEET WITH NO
SIGNIFICANT WEATHER AND/OR OBSTRUCTIONS TO VISIBILITY.

KSZ001>006-013>018-027>032-041>047-261700-
NORTHWEST KANSAS

CITY           SKY/WX    TMP DP  RH WIND       PRES   REMARKS
GOODLAND       CLOUDY    50  45  83 NW9       30.21R
HAYS           CLOUDY    53  47  79 N18       30.18S
HILL CITY      CLOUDY    53  48  83 N13       30.20S
RUSSELL        CLOUDY    53  49  86 N14       30.17R
$$

KSZ061>065-074>080-084>089-261700-
SOUTHWEST KANSAS

CITY           SKY/WX    TMP DP  RH WIND       PRES   REMARKS
DODGE CITY     CLOUDY    51  49  92 N13       30.19R
ELKHART          N/A     50  50 100 N8          N/A
GARDEN CITY    CLOUDY    50  46  86 N13       30.21R
GREAT BEND     CLOUDY    55  50  83 N20       30.17R
LIBERAL        CLOUDY    54  50  86 N16       30.20R
$$

KSZ066>073-081>083-090>101-261700-
SOUTHEAST KANSAS

CITY           SKY/WX    TMP DP  RH WIND       PRES   REMARKS
CHANUTE        CLOUDY    71  65  81 N8        30.07R
COFFEYVILLE    CLOUDY    71  66  84 NE6       30.05R
HUTCHINSON     CLOUDY    57  54  89 N12       30.14R
MEDICINE LODGE   N/A     57  51  80 N14       30.12S
NEWTON         CLOUDY    57  55  93 N13       30.13R
PARSONS        LGT RAIN  69  67  93 CALM      30.06S
WICHITA INTL   CLOUDY    59  56  89 N12       30.12R
WICHITA JABRA  CLOUDY    59  57  93 N13       30.11R
WICHITA MCCONL CLOUDY    59  55  88 N10       30.11R
WINFIELD       LGT RAIN  62  61  96 N10       30.10R
$$

KSZ007>012-019>026-033>040-048>060-102>105-261700-
NORTHEAST KANSAS

CITY           SKY/WX    TMP DP  RH WIND       PRES   REMARKS
CONCORDIA      CLOUDY    54  51  90 N12       30.16R
EMPORIA        CLOUDY    61  59  93 NW12      30.09R
LAWRENCE       CLOUDY    64  63  96 NW12      30.08R
MANHATTAN      CLOUDY    59  55  87 N8        30.12S
OLATHE IND     CLOUDY    66  64  93 NW13      30.07R
OLATHE EXE     PTSUNNY   69  66  90 NW8       30.06R
SALINA         CLOUDY    58  52  80 NW12      30.16R
TOPEKA BILLARD CLOUDY    62  61  96 NW9       30.09R
TOPEKA FORBES  CLOUDY    63  61  93 N12       30.09R
$$




USA.gov is the U.S. government's official web portal to all federal, state and local government web resources and services.